#timestamp,LO_Frequency,Hit 
1498467615.2,286045535.9,N
1498467635.0,286045538.4,N
1498467635.9,286045538.4,N
1498467655.8,286045538.8,N
1498467675.6,286045538.7,N
1498467695.4,286045536.5,N
1498467715.3,286045535.9,N
1498467735.1,286045536.9,N
1498467755.9,286045536.9,N
1498467775.7,286045536.9,N
1498467795.5,286045534.9,N
1498467815.4,286045534.7,N
1498467835.2,286045534.4,N
1498467855.1,286045534.9,N
1498467856.0,286045534.9,N
1498467875.8,286045534.4,N
1498467895.6,286045534.4,N
1498467915.5,286045534.3,N
1498467935.3,286045534.5,N
1498467955.1,286045536.5,N
1498467975.9,286045537.1,N
1498467995.7,286045535.3,N
1498468015.6,286045534.7,N
1498468035.4,286045534.5,N
1498468055.2,286045532.5,N
1498468075.1,286045535.1,N
1498468076.0,286045535.1,N
1498468095.8,286045533.3,N
1498468115.6,286045533.3,N
1498468135.5,286045533.1,N
1498468155.3,286045532.8,N
1498468175.2,286045532.9,N
1498468195.9,286045532.7,N
1498468215.7,286045534.9,N
1498468235.6,286045532.9,N
1498468255.4,286045533.1,N
1498468275.3,286045533.1,N
1498468295.1,286045533.1,N
1498468296.0,286045533.1,N
1498468315.8,286045532.7,N
1498468335.7,286045532.7,N
1498468355.5,286045535.5,N
1498468375.3,286045533.4,N
1498468395.2,286045532.6,N
1498468415.0,286045534.0,N
1498468415.9,286045534.0,N
1498468435.8,286045529.8,N
1498468455.6,286045529.7,N
1498468475.4,286045529.8,N
1498468495.3,286045529.9,N
1498468515.1,286045530.0,N
1498468535.8,286045530.5,N
1498468555.7,286045531.9,N
1498468575.5,286045531.4,N
1498468595.4,286045533.5,N
1498468615.2,286045531.5,N
1498468635.0,286045529.9,N
1498468635.9,286045529.9,N
1498468655.8,286045531.8,N
1498468675.6,286045531.5,N
1498468695.4,286045531.3,N
1498468715.3,286045531.4,N
1498468735.1,286045529.4,N
1498468755.9,286045531.7,N
1498468775.7,286045529.6,N
1498468795.5,286045530.5,N
1498468815.4,286045532.2,N
1498468835.2,286045529.4,N
1498468855.0,286045531.3,N
1498468856.0,286045531.3,N
1498468875.8,286045531.8,N
1498468895.6,286045531.3,N
1498468915.5,286045529.7,N
1498468935.3,286045530.2,N
1498468955.1,286045530.7,N
1498468975.9,286045529.9,N
1498468995.7,286045532.4,N
1498469015.6,286045530.1,N
1498469035.4,286045529.8,N
1498469055.2,286045532.1,N
1498469075.1,286045531.9,N
1498469076.0,286045531.9,N
1498469095.8,286045531.9,N
1498469115.6,286045531.6,N
1498469135.5,286045529.8,N
1498469155.3,286045532.1,N
1498469175.2,286045532.3,N
1498469195.9,286045529.6,N
1498469215.7,286045532.2,N
1498469235.6,286045529.3,N
1498469255.4,286045530.2,N
1498469275.2,286045530.0,N
1498469295.1,286045530.5,N
1498469296.0,286045530.5,N
1498469315.8,286045532.1,N
1498469335.7,286045530.2,N
1498469355.5,286045527.7,N
1498469375.3,286045528.9,N
1498469395.2,286045528.9,N
1498469415.0,286045528.8,N
1498469415.9,286045528.8,N
1498469435.8,286045526.7,N
1498469455.6,286045526.3,N
1498469475.4,286045529.0,N
1498469495.3,286045526.1,N
1498469515.1,286045526.1,N
1498469535.8,286045528.8,N
1498469555.7,286045526.7,N
1498469575.5,286045528.6,N
1498469595.4,286045527.0,N
1498469615.2,286045527.0,N
1498469635.0,286045524.9,N
1498469635.9,286045524.9,N
1498469655.8,286045526.9,N
1498469675.6,286045527.1,N
1498469695.4,286045526.6,N
1498469715.3,286045527.4,N
1498469735.1,286045527.4,N
1498469755.9,286045528.8,N
1498469775.7,286045524.7,N
1498469795.5,286045529.1,N
1498469815.4,286045526.2,N
1498469835.2,286045527.4,N
1498469855.1,286045526.3,N
1498469856.0,286045526.3,N
1498469875.8,286045526.5,N
1498469895.6,286045528.6,N
1498469915.5,286045526.5,N
1498469935.3,286045527.2,N
1498469955.1,286045527.5,N
1498469975.9,286045526.7,N
1498469995.7,286045526.7,N
1498470015.6,286045527.3,N
1498470035.4,286045526.3,N
1498470055.2,286045526.2,N
1498470075.1,286045528.9,N
1498470076.0,286045528.9,N
1498470095.8,286045529.1,N
1498470115.7,286045526.5,N
1498470135.5,286045526.1,N
1498470155.3,286045526.3,N
1498470175.2,286045526.1,N
1498470195.0,286045529.2,N
1498470195.9,286045529.2,N
1498470215.7,286045526.9,N
1498470235.6,286045526.9,N
1498470255.4,286045526.1,N
1498470275.3,286045529.1,N
1498470295.1,286045529.2,N
1498470296.0,286045529.2,N
1498470315.8,286045528.3,N
1498470335.7,286045526.1,N
1498470355.5,286045526.2,N
1498470375.4,286045526.3,N
1498470395.2,286045529.1,N
1498470415.0,286045528.3,N
1498470415.9,286045528.3,N
1498470435.8,286045530.4,N
1498470455.6,286045529.6,N
1498470475.4,286045530.5,N
1498470495.3,286045529.7,N
1498470515.1,286045532.4,N
1498470535.9,286045529.9,N
1498470555.7,286045530.0,N
1498470575.5,286045530.1,N
1498470595.4,286045532.4,N
1498470615.2,286045532.3,N
1498470635.0,286045530.0,N
1498470635.9,286045530.0,N
1498470655.8,286045530.5,N
1498470675.6,286045530.1,N
1498470695.5,286045529.8,N
1498470715.3,286045529.7,N
1498470735.1,286045529.4,N
1498470755.9,286045529.7,N
1498470775.7,286045532.3,N
1498470795.5,286045529.4,N
1498470815.4,286045531.7,N
1498470835.2,286045533.1,N
1498470855.1,286045535.4,N
1498470856.0,286045535.4,N
1498470875.8,286045535.2,N
1498470895.6,286045535.1,N
1498470915.5,286045533.7,N
1498470935.3,286045535.3,N
1498470955.2,286045532.5,N
1498470975.9,286045533.0,N
1498470995.7,286045535.1,N
1498471015.6,286045535.2,N
1498471035.4,286045535.6,N
1498471055.2,286045532.5,N
1498471075.1,286045532.5,N
1498471076.0,286045532.5,N
1498471095.8,286045533.5,N
1498471115.7,286045531.4,N
1498471135.5,286045532.8,N
1498471155.3,286045532.8,N
1498471175.2,286045535.4,N
1498471195.0,286045534.7,N
1498471195.9,286045534.7,N
